Wetbulb
46.48 47.16 47.96 48.77 49.22 49.09 49.00 49.50 50.58 50.59 49.96 48.60 48.60 49.24 50.46 52.18 53.85 55.30 56.24 56.82 56.96 56.87 56.59 56.21 55.75 55.31 54.88 54.12 53.31 53.18 53.45 54.13 54.54 54.99 55.03 54.53 54.27 53.99 53.95 54.41 55.53 56.40 56.85 57.26 57.30 57.92 58.69 59.05 58.60 57.42 56.11 55.16 54.30 52.72 51.04 49.91 51.41 52.45 52.94 53.08 52.27 51.54 51.32 51.68 51.59 51.46 51.50 51.91 51.64
46.21 46.71 47.65 49.22 49.54 49.63 49.77 50.27 50.77 50.86 50.64 50.14 50.14 50.41 51.23 52.95 54.44 55.46 56.21 56.61 56.95 56.86 56.59 56.14 55.50 55.14 54.92 54.73 54.47 54.20 54.07 54.06 54.11 54.07 53.94 53.58 53.40 53.13 53.13 53.90 54.53 54.99 55.39 55.98 56.57 57.11 57.25 56.70 55.93 54.49 52.81 51.41 50.82 49.60 48.42 47.74 48.78 49.87 50.50 50.19 49.69 49.60 49.96 50.60 50.10 49.83 49.69 49.65 49.19
46.12 46.84 47.52 47.97 48.10 48.74 49.55 50.46 50.14 49.51 49.24 49.82 50.64 51.36 52.27 53.53 54.55 55.06 55.50 55.82 56.13 56.27 56.10 55.58 55.05 54.60 54.23 54.23 54.37 54.37 54.23 54.05 53.77 53.51 53.34 53.02 52.94 53.08 53.35 53.94 54.26 54.71 55.21 55.39 55.07 54.62 54.12 54.03 53.67 52.85 51.72 50.73 50.19 49.37 48.20 46.75 47.61 48.20 48.51 48.20 48.33 48.65 48.78 48.51 47.52 47.20 47.25 47.06 46.88
45.63 46.34 46.93 47.34 46.88 46.79 47.34 49.06 48.29 48.11 48.65 50.05 50.14 50.77 51.80 53.14 53.74 54.22 54.58 54.76 55.02 55.19 55.19 54.89 54.47 54.04 53.69 53.38 53.33 53.42 53.46 53.55 53.22 52.87 52.61 52.47 52.43 52.52 52.61 52.66 52.35 52.35 52.40 52.67 52.76 52.81 52.72 52.67 52.18 51.41 50.64 50.00 49.91 49.60 49.06 48.15 47.97 47.74 47.52 47.56 47.65 47.65 47.34 46.84 46.25 46.02 45.89 45.25 44.80
45.22 46.16 46.93 47.43 46.79 46.84 47.02 46.66 46.84 47.47 48.24 49.05 49.86 50.36 50.80 51.32 52.02 52.73 53.22 53.45 53.73 54.00 54.31 54.43 54.18 53.74 53.36 52.82 52.52 52.38 52.46 52.69 52.90 52.77 52.46 52.29 52.24 52.29 52.34 52.25 52.12 52.17 52.22 52.40 52.30 52.12 51.85 51.40 50.91 50.37 49.91 49.87 49.96 49.82 49.60 49.33 48.83 48.15 47.43 46.84 46.52 46.16 45.93 45.53 45.12 44.98 44.71 44.40 43.63
44.68 45.44 46.12 46.52 46.25 46.43 46.84 47.06 46.39 46.70 47.52 48.28 48.01 48.06 48.41 49.12 49.70 50.42 51.18 51.85 52.25 52.60 53.17 53.66 53.81 53.60 53.21 52.58 52.18 51.96 51.96 51.97 52.15 52.20 52.11 51.93 51.93 51.93 51.94 51.94 51.94 51.99 51.90 51.94 51.90 51.85 51.62 51.35 50.81 50.41 50.00 49.87 49.46 49.24 49.05 48.87 48.20 47.34 46.43 45.66 45.08 44.76 44.53 44.08 43.76 43.85 43.90 43.81 42.95
43.41 44.13 44.63 45.21 45.53 46.03 46.30 45.94 46.21 46.39 46.57 47.02 46.35 45.98 45.98 46.30 46.66 47.34 48.28 49.62 50.41 50.98 51.61 52.19 52.46 52.74 52.92 52.56 52.11 51.71 51.45 51.19 51.20 51.20 51.21 51.13 51.08 51.03 51.03 51.04 51.08 51.17 51.26 51.35 51.35 51.22 51.17 51.13 50.77 50.41 49.91 49.51 48.78 48.33 47.97 47.61 47.16 46.34 45.26 44.40 43.99 43.58 43.13 42.54 42.63 42.90 43.09 42.77 42.32
42.51 43.01 43.50 44.00 44.54 44.85 44.94 45.03 45.49 45.89 46.08 46.26 45.58 44.99 44.63 44.63 44.72 45.08 45.80 46.84 47.61 48.46 49.22 49.88 50.02 50.65 51.27 51.58 51.44 51.13 50.87 50.47 50.26 50.17 50.18 50.13 49.91 49.86 49.86 49.81 49.77 49.95 50.04 50.31 50.27 50.09 49.96 50.09 49.78 49.33 48.78 48.33 47.65 47.16 46.57 45.80 45.80 45.08 44.13 43.22 42.90 42.54 42.23 41.87 41.73 41.87 42.00 41.87 41.51
42.24 42.47 42.74 43.18 43.46 43.73 44.04 44.13 44.31 44.68 44.86 44.63 44.31 44.18 44.27 44.41 43.96 44.10 44.45 44.99 45.35 45.89 46.34 46.93 46.89 47.16 47.70 48.19 48.95 49.49 49.61 49.43 49.08 48.86 48.86 48.82 48.64 48.60 48.60 48.69 48.55 48.51 48.60 48.78 48.78 48.60 48.46 48.47 48.10 47.74 47.43 47.06 46.43 45.89 45.35 44.82 44.50 43.82 43.04 42.54 42.23 41.91 41.64 41.28 40.83 40.65 40.65 40.70 40.21
41.15 41.47 41.88 42.37 42.37 42.73 43.09 43.09 43.64 43.73 43.55 43.32 43.09 43.41 44.00 44.81 43.96 43.51 43.37 43.78 43.96 44.05 44.09 44.36 44.54 44.85 45.17 45.26 45.76 46.12 46.53 47.20 47.38 47.33 47.15 47.15 46.98 46.93 46.98 47.20 47.20 47.34 47.43 47.47 47.47 47.29 46.98 46.66 46.16 45.76 45.53 45.39 44.90 44.63 44.32 44.11 43.38 42.69 42.23 42.32 41.92 41.33 40.88 40.65 40.25 40.03 39.94 39.98 39.32
39.80 40.16 40.70 41.37 41.37 41.87 42.41 42.41 43.09 43.37 43.09 42.82 42.51 42.60 42.96 43.41 42.87 42.56 42.61 42.79 43.15 42.88 42.61 42.69 42.96 43.37 43.68 43.73 43.68 43.72 44.04 44.86 45.59 45.68 45.55 45.33 45.14 44.92 45.00 45.36 45.72 45.90 46.17 46.26 46.39 46.30 46.03 45.49 44.81 44.40 44.13 43.99 43.82 43.56 43.30 42.95 42.26 41.66 41.37 41.42 41.16 40.66 40.16 39.89 39.84 39.75 39.57 39.40 38.82
39.02 39.39 39.75 40.11 40.33 40.92 41.51 42.10 42.64 42.64 42.51 42.28 41.96 41.82 41.92 41.87 41.60 41.79 42.06 42.30 42.47 42.34 42.02 41.98 42.25 42.25 42.46 42.69 42.55 42.64 42.78 42.33 42.55 42.96 43.24 42.94 42.53 42.39 42.70 43.42 43.96 44.19 44.42 44.59 44.90 45.08 44.85 44.18 43.64 43.23 42.82 42.73 42.78 42.74 42.49 41.96 41.50 41.04 40.71 40.52 40.26 39.95 39.45 39.09 39.12 39.03 38.94 38.72 38.19
38.39 38.75 39.11 39.39 39.70 40.20 40.83 41.65 42.10 42.15 41.98 41.88 41.42 41.23 41.19 41.14 41.33 41.56 41.57 41.57 41.88 42.02 42.02 42.16 42.21 41.98 41.61 41.38 41.24 41.29 41.29 41.15 40.93 40.97 41.06 40.74 40.42 40.52 40.94 41.85 42.36 42.37 42.31 42.44 42.75 42.74 42.51 42.06 41.97 41.88 41.79 41.61 41.79 41.75 41.63 41.33 40.96 40.55 40.18 39.77 39.50 39.09 38.73 38.42 38.36 38.13 37.95 37.63 37.32
37.90 38.12 38.35 38.57 39.02 39.84 40.70 41.38 41.81 41.82 41.68 41.49 40.74 40.37 40.24 40.28 41.20 41.38 41.15 40.79 40.97 41.15 41.34 41.88 42.39 42.29 41.61 40.66 40.66 40.48 40.39 40.52 40.30 40.21 40.26 40.48 40.26 40.18 40.33 40.57 40.67 40.67 40.61 40.55 40.41 40.09 40.12 40.80 41.09 41.00 40.68 40.41 40.35 40.36 40.50 40.51 40.28 40.00 39.64 39.23 38.82 38.42 38.14 37.95 37.46 36.96 36.36 35.86 36.17
37.40 37.54 37.67 37.85 38.39 39.43 40.48 41.04 41.47 41.43 41.29 41.14 40.07 39.60 39.56 40.01 40.70 40.97 40.70 39.93 39.93 40.34 40.79 41.25 41.84 42.21 41.87 40.96 40.49 40.17 40.08 40.08 39.99 39.91 39.87 39.92 39.66 39.62 39.58 39.53 39.57 39.75 39.80 39.81 39.62 39.30 39.11 39.09 39.27 39.45 39.60 39.51 39.33 39.33 39.43 39.34 39.23 39.05 38.82 38.46 38.18 37.77 37.31 36.77 36.22 35.32 34.40 33.72 34.81
36.81 36.91 37.00 37.17 37.76 38.75 39.80 40.60 40.99 40.99 40.92 40.87 39.89 39.43 39.33 39.51 39.93 40.48 40.52 39.62 39.70 40.15 40.70 41.07 41.34 42.01 42.39 41.99 40.97 40.46 40.19 40.15 40.06 39.94 39.81 39.69 39.60 39.50 39.50 39.50 39.59 39.69 39.78 39.78 39.68 39.50 39.39 39.13 39.32 39.46 39.47 39.29 39.15 38.97 38.88 38.69 38.55 38.36 38.09 37.86 37.63 37.17 36.39 35.49 35.58 34.94 34.13 33.77 34.95
36.27 36.36 36.40 36.49 37.03 37.71 38.49 39.59 40.11 40.34 40.38 40.36 40.07 40.25 40.39 39.99 40.11 40.89 41.40 40.80 40.48 40.34 40.66 41.49 41.84 42.13 42.19 42.19 41.50 40.82 40.41 40.29 40.12 40.08 39.95 39.77 39.75 39.62 39.66 39.66 39.79 39.88 39.88 39.88 39.69 39.72 39.66 39.65 39.78 39.69 39.64 39.45 39.27 39.05 38.87 38.77 38.50 38.22 38.04 37.89 37.76 37.48 37.08 36.58 36.27 35.68 35.40 35.73 36.09
36.08 36.13 36.08 35.95 36.30 36.75 37.35 38.26 38.82 39.23 39.40 39.57 39.89 40.72 41.47 41.39 41.19 41.51 41.94 41.99 41.44 40.98 40.84 41.31 41.66 41.71 41.57 41.39 41.21 40.90 40.50 40.14 40.01 39.92 39.92 39.87 39.82 39.77 39.72 39.76 39.81 39.85 39.85 39.75 39.64 39.63 39.58 39.58 39.71 39.61 39.60 39.32 39.09 38.95 38.82 38.64 38.41 38.22 38.04 37.86 37.72 37.58 37.22 36.72 35.54 35.09 35.22 35.67 36.08
37.21 36.85 36.44 35.89 35.85 36.17 36.84 37.80 37.89 38.26 38.53 38.35 38.62 39.81 41.11 41.73 41.56 41.43 41.48 41.67 41.58 41.20 40.83 40.89 40.94 40.99 40.86 40.80 40.80 40.76 40.59 40.00 39.78 39.69 39.78 39.87 39.82 39.73 39.64 39.63 39.63 39.63 39.50 39.43 39.32 39.35 39.25 39.21 39.21 39.12 39.06 38.87 38.73 38.55 38.37 38.19 38.00 37.91 37.73 37.59 37.36 37.00 36.54 35.81 35.26 35.22 35.22 34.76 35.04
39.68 39.51 39.07 37.99 37.03 36.62 36.80 37.44 37.58 37.85 38.04 37.67 37.26 38.04 39.66 41.47 41.35 41.13 40.99 40.95 41.13 40.86 40.57 40.33 40.48 40.49 40.40 40.40 40.22 40.22 40.17 40.07 39.68 39.42 39.42 39.51 39.37 39.28 39.27 39.27 39.19 39.05 38.91 38.77 38.75 38.72 38.61 38.57 38.49 38.40 38.30 38.12 37.94 37.75 37.65 37.51 37.42 37.33 37.28 37.18 37.09 36.87 36.64 36.36 36.22 35.90 35.40 34.44 34.03
41.13 41.10 40.96 40.45 39.52 38.82 38.53 38.94 38.90 38.54 37.99 37.54 37.31 37.63 38.84 41.02 40.85 40.73 40.63 40.72 40.77 40.59 40.40 40.15 40.12 40.08 39.94 39.94 39.72 39.67 39.71 39.88 39.37 39.15 38.97 38.92 38.63 38.56 38.47 38.60 38.67 38.64 38.43 38.30 38.12 37.90 37.79 37.72 37.59 37.45 37.40 37.26 37.01 36.86 36.75 36.66 36.57 36.52 36.56 36.56 36.47 36.47 36.47 36.52 36.47 36.33 36.13 35.58 34.30
41.15 41.28 41.15 41.04 40.52 40.05 39.77 39.86 39.82 39.09 38.31 37.86 39.06 39.53 39.78 40.44 40.46 40.46 40.50 40.50 40.31 40.12 39.93 39.87 39.82 39.73 39.64 39.64 39.47 39.30 39.30 39.30 38.92 38.71 38.56 38.38 37.94 37.46 36.89 36.07 36.59 37.38 37.93 37.70 37.45 37.18 36.94 36.69 36.51 36.38 36.26 36.17 36.11 36.10 36.02 35.94 35.86 35.76 35.67 35.62 35.58 35.53 35.53 35.58 35.56 35.56 35.77 36.26 35.94
41.08 41.12 41.09 41.18 41.09 40.99 40.94 40.68 40.49 40.16 39.75 39.66 40.09 40.26 40.32 40.28 40.29 40.33 40.33 40.24 40.01 39.81 39.62 39.56 39.50 39.45 39.42 39.43 39.26 39.00 38.82 38.55 38.31 38.03 37.66 37.11 36.95 36.52 35.70 34.43 34.75 35.90 36.95 36.95 36.87 36.66 36.29 35.93 35.69 35.68 35.65 35.51 35.47 35.51 35.56 35.61 35.51 35.40 35.16 34.86 34.76 34.62 34.39 34.16 34.07 34.02 34.25 34.96 35.86
41.08 41.14 41.16 41.11 40.97 40.83 40.74 40.65 40.51 40.38 40.29 40.26 40.22 40.19 40.20 40.12 40.16 40.12 40.12 39.94 39.80 39.62 39.48 39.46 39.48 39.51 39.43 39.33 39.20 39.07 38.75 38.41 38.22 37.87 37.05 35.73 34.54 34.18 34.09 33.51 33.97 35.34 36.48 36.17 36.89 36.83 36.35 35.69 35.36 35.35 35.41 35.38 35.24 35.13 34.99 35.03 34.99 34.88 34.73 34.46 34.27 33.90 33.58 33.31 33.36 33.40 33.49 33.75 34.66
41.01 40.98 40.89 40.75 40.56 40.47 40.43 40.29 40.20 40.12 40.13 40.22 40.19 40.15 40.11 40.03 40.03 39.98 39.85 39.84 39.75 39.74 39.78 39.69 39.72 39.79 39.66 39.53 39.43 39.33 39.23 39.17 39.10 38.81 38.26 37.53 36.80 37.08 37.71 38.09 38.45 38.84 39.11 39.14 39.36 38.88 38.03 36.99 36.09 35.35 34.98 34.91 34.75 34.60 34.52 34.49 34.41 34.31 34.17 34.02 33.80 33.46 33.09 32.96 32.99 32.90 32.88 33.05 33.49
40.53 40.53 40.39 40.34 40.35 40.31 40.22 40.12 40.08 39.99 40.08 40.05 40.05 40.00 40.00 39.97 39.97 39.96 39.82 39.81 39.89 39.97 40.06 40.14 40.23 40.23 40.19 39.81 39.70 39.56 39.55 39.59 39.53 39.53 39.70 39.92 40.01 40.19 40.39 40.48 40.41 40.31 40.36 40.78 40.77 40.40 39.68 38.87 37.65 36.28 35.00 34.20 34.08 34.00 33.90 33.79 33.64 33.45 33.32 33.11 33.05 32.84 32.60 32.46 32.47 32.53 32.73 32.77 32.79
40.03 39.98 39.93 40.03 39.99 39.93 39.88 39.97 39.93 39.93 39.88 39.85 39.84 39.80 39.80 39.78 39.82 39.68 39.62 39.59 39.71 39.88 39.97 40.06 40.07 40.18 40.10 39.62 39.47 39.24 39.15 39.14 38.68 38.22 37.90 38.17 39.16 39.89 40.34 40.44 40.64 40.79 41.09 41.47 41.35 40.99 40.40 39.64 38.64 37.20 35.69 34.12 33.88 33.71 33.47 33.23 32.97 32.82 32.61 32.25 32.28 32.01 31.76 31.56 31.50 31.85 32.03 31.84 31.74
39.60 39.60 39.60 39.60 39.55 39.64 39.72 39.81 39.73 39.69 39.56 39.60 39.63 39.43 39.33 39.20 39.15 38.99 38.92 39.02 39.06 39.14 39.19 39.27 39.41 39.51 39.39 39.02 38.83 38.78 38.87 39.01 39.05 39.14 39.29 39.56 39.83 39.96 40.04 40.13 40.15 40.57 41.12 41.55 41.28 40.91 40.50 39.86 38.92 37.83 36.52 34.84 33.74 33.23 33.11 32.87 32.70 32.54 32.42 32.10 31.74 31.36 30.91 30.73 30.79 30.67 30.37 29.79 30.18
39.29 39.29 39.29 39.25 39.29 39.38 39.51 39.60 39.55 39.48 39.36 39.24 39.06 38.90 38.65 38.43 38.26 38.15 38.13 38.16 38.07 38.10 38.14 38.40 38.73 38.64 38.45 38.18 38.14 38.24 38.39 38.61 38.94 39.26 39.44 39.36 39.44 39.52 39.60 39.69 39.93 40.61 41.29 41.59 41.23 40.83 40.38 39.79 39.06 38.25 37.20 35.87 33.94 32.87 32.39 32.21 31.58 31.43 31.41 31.20 30.68 30.52 30.42 30.13 29.82 29.22 28.63 28.45 28.72
38.72 38.85 38.99 39.03 39.03 39.12 39.21 39.30 39.31 39.15 39.03 38.81 38.51 38.27 38.04 37.77 37.62 37.57 37.43 37.38 37.24 37.42 37.59 37.73 37.65 37.42 37.20 37.20 37.35 37.49 37.67 37.90 38.15 38.34 38.37 38.31 38.40 38.53 38.66 38.65 38.88 39.79 40.84 41.38 41.02 40.53 40.03 39.49 38.81 38.08 37.16 35.87 33.15 31.32 30.55 30.65 29.97 29.89 29.96 29.89 29.75 29.65 29.40 29.05 28.24 27.75 27.65 28.10 27.82
38.16 38.12 38.31 38.54 38.58 38.62 38.76 38.94 38.87 38.66 38.53 38.35 38.03 37.75 37.43 37.20 37.02 36.93 36.88 36.83 36.97 37.20 37.31 37.09 36.64 36.46 36.50 36.71 36.76 36.89 37.08 37.32 37.55 37.66 37.72 37.76 38.02 38.00 37.75 37.20 37.98 39.26 40.40 41.00 40.63 40.18 39.68 39.05 38.32 37.58 36.57 35.16 31.62 28.39 26.82 28.44 29.38 29.43 29.12 28.89 28.76 28.56 28.34 28.20 27.25 27.20 27.36 27.29 26.85
38.13 38.04 37.95 38.09 38.13 38.17 38.31 38.50 38.38 38.20 38.02 37.80 37.53 37.21 36.93 36.61 36.60 36.56 36.52 36.57 36.49 36.37 36.23 35.96 35.83 35.78 35.87 36.05 36.22 36.44 36.71 36.91 37.09 37.28 37.34 37.42 37.32 37.40 37.43 37.42 37.67 38.95 40.19 40.53 40.24 39.87 39.33 38.78 37.92 37.11 36.08 34.81 31.80 28.20 25.88 26.97 27.20 27.50 27.53 27.15 26.36 25.95 25.87 26.04 25.65 24.97 24.23 23.65 22.97
37.99 37.95 37.86 37.68 37.72 37.81 37.99 38.00 37.96 37.79 37.61 37.34 36.98 36.66 36.43 36.24 36.20 36.07 36.03 35.99 35.68 35.41 35.14 35.05 34.88 34.97 35.15 35.33 35.63 35.90 36.26 36.64 36.87 37.24 37.51 37.41 37.08 37.07 37.29 37.56 37.98 39.19 40.08 40.05 39.85 39.52 38.97 38.38 37.52 36.50 35.43 34.13 30.77 26.29 22.96 23.40 23.91 24.43 24.44 23.50 22.53 22.05 21.77 21.65 20.97 19.95 18.80 17.91 17.26
37.68 37.63 37.59 37.50 37.50 37.54 37.54 37.55 37.51 37.34 37.02 36.75 36.39 36.16 35.94 35.74 35.47 35.29 35.20 35.04 34.77 34.54 34.41 34.37 34.33 34.42 34.60 34.73 35.04 35.27 35.64 36.11 36.05 36.14 36.19 36.33 35.78 35.99 36.57 37.38 38.15 39.08 39.76 39.61 39.37 39.00 38.38 37.65 36.77 35.79 34.67 33.10 28.27 24.91 23.05 22.76 22.20 21.24 20.07 18.94 18.34 17.58 16.59 15.43 14.90 14.54 14.32 14.25 14.18
37.41 37.32 37.18 37.14 37.14 37.14 37.05 37.01 36.93 36.62 36.34 35.89 35.62 35.49 35.27 35.07 34.84 34.61 34.44 34.33 33.88 33.47 33.23 33.29 33.38 33.38 33.46 33.77 34.05 34.33 34.57 34.52 34.34 34.23 34.24 34.17 33.82 33.81 34.02 34.45 35.49 37.30 38.66 38.60 38.41 37.97 37.46 36.79 35.86 34.84 33.11 29.88 23.93 20.73 19.36 18.78 17.99 16.98 16.09 15.84 15.67 14.98 14.10 13.66 13.67 13.51 13.36 13.36 13.56
37.09 36.96 36.73 36.64 36.64 36.64 36.56 36.38 36.16 35.89 35.49 35.16 34.81 34.54 34.35 34.20 34.16 34.12 34.05 33.96 33.08 32.48 32.15 32.21 32.17 32.03 31.97 32.06 32.47 32.72 32.70 31.97 31.86 31.66 31.33 30.85 29.13 27.88 27.28 27.37 27.82 32.12 36.46 37.22 37.02 36.72 36.26 35.64 35.05 33.84 30.88 24.86 19.21 16.48 15.60 15.07 14.74 14.40 14.27 14.80 15.13 14.76 14.14 13.71 13.78 13.74 13.45 13.14 13.41
36.45 36.46 36.33 36.19 36.05 35.96 35.79 35.58 35.22 34.85 34.44 34.16 33.72 33.44 33.12 32.97 33.06 33.22 33.30 33.16 32.03 31.57 31.35 31.18 31.09 30.90 30.71 30.48 30.08 29.47 28.82 28.63 28.60 27.79 26.72 25.63 23.86 22.36 21.65 22.26 21.12 26.76 33.38 36.14 35.88 35.61 35.40 35.11 34.67 32.91 28.73 20.97 16.54 14.96 14.74 14.47 14.19 14.09 14.22 14.46 14.22 13.65 13.14 12.77 13.04 13.29 13.58 13.96 16.38
35.42 35.60 35.60 35.33 34.93 34.66 34.47 34.21 33.90 33.53 33.20 32.97 32.75 32.62 32.53 32.30 32.26 32.32 32.32 31.93 30.57 30.24 30.34 30.12 29.95 29.63 29.23 28.75 27.91 26.06 24.12 23.03 23.46 22.29 20.52 19.09 19.10 19.74 20.64 21.59 20.85 24.47 30.18 35.35 35.70 35.54 35.22 34.97 34.50 32.54 27.93 19.65 15.93 14.91 15.02 14.93 14.45 14.27 14.09 13.85 13.74 13.49 13.09 12.33 12.24 12.51 13.48 15.73 24.02
34.33 34.38 34.25 33.89 33.47 33.20 33.12 33.03 32.85 32.62 32.43 32.25 32.20 32.07 31.85 31.63 31.50 31.21 30.76 29.83 28.62 28.25 28.19 27.78 27.94 27.86 27.69 27.43 25.02 22.69 20.43 18.38 18.59 18.77 18.41 16.88 19.15 22.10 23.46 20.76 20.27 22.25 27.00 34.33 35.84 35.84 35.29 34.98 34.64 33.34 29.20 20.81 15.60 14.29 14.74 14.78 14.58 14.27 13.78 13.12 13.34 13.78 13.84 12.94 12.26 12.33 13.56 16.21 26.28
33.61 33.53 33.35 33.12 33.03 32.90 32.71 32.57 32.39 32.12 31.94 31.94 31.75 31.34 30.95 31.00 30.62 29.66 28.25 26.57 25.89 24.82 23.78 23.20 23.77 24.26 24.80 25.59 21.07 18.80 17.83 17.40 16.80 17.54 18.65 19.01 21.63 25.20 25.99 20.17 18.68 19.75 24.24 32.75 35.87 36.26 35.54 35.16 35.02 33.58 29.19 20.02 15.08 13.90 14.45 14.81 15.22 15.14 14.47 13.15 12.95 13.60 14.17 13.78 12.70 12.63 13.31 14.56 20.08
33.44 33.44 33.35 33.26 33.18 32.99 32.71 32.39 32.07 31.80 31.67 31.71 31.31 31.13 31.00 30.76 28.80 26.27 24.14 23.03 22.48 21.69 20.82 20.40 20.23 20.73 21.72 23.23 18.99 17.62 18.07 19.01 17.70 17.27 17.92 19.84 20.55 22.69 23.11 19.00 17.76 18.01 21.52 29.58 35.54 36.73 35.87 35.47 35.29 33.71 29.34 20.78 15.28 13.83 14.54 15.60 16.49 16.44 15.55 13.99 12.70 12.72 13.29 13.69 13.47 13.51 13.60 13.58 13.97
MSLP
1018.24 1018.12 1018.00 1017.84 1017.72 1017.68 1017.56 1017.44 1017.32 1017.24 1017.16 1017.08 1017.00 1016.88 1016.80 1016.72 1016.60 1016.56 1016.48 1016.40 1016.40 1016.36 1016.36 1016.32 1016.28 1016.24 1016.12 1016.00 1015.88 1015.84 1015.80 1015.80 1015.84 1015.84 1015.92 1015.96 1016.00 1016.00 1016.00 1016.00 1016.04 1016.16 1016.28 1016.44 1016.56 1016.60 1016.60 1016.72 1016.88 1017.12 1017.36 1017.56 1017.68 1017.88 1018.04 1018.16 1018.24 1018.28 1018.44 1018.60 1018.76 1018.96 1019.08 1019.16 1019.28 1019.40 1019.48 1019.52 1019.56
1018.32 1018.24 1018.08 1017.96 1017.84 1017.68 1017.60 1017.52 1017.40 1017.28 1017.20 1017.12 1017.04 1017.00 1016.88 1016.80 1016.72 1016.64 1016.56 1016.56 1016.56 1016.52 1016.48 1016.48 1016.44 1016.40 1016.28 1016.12 1016.08 1016.04 1016.00 1016.00 1016.00 1016.04 1016.12 1016.12 1016.12 1016.12 1016.12 1016.12 1016.20 1016.28 1016.40 1016.44 1016.48 1016.52 1016.56 1016.76 1017.00 1017.28 1017.56 1017.76 1017.92 1018.12 1018.28 1018.36 1018.40 1018.52 1018.68 1018.84 1019.00 1019.12 1019.20 1019.36 1019.44 1019.56 1019.56 1019.64 1019.68
1018.44 1018.32 1018.20 1018.12 1018.00 1017.88 1017.76 1017.68 1017.60 1017.48 1017.36 1017.28 1017.16 1017.08 1017.00 1016.92 1016.84 1016.80 1016.76 1016.76 1016.72 1016.68 1016.64 1016.64 1016.60 1016.56 1016.48 1016.36 1016.28 1016.28 1016.24 1016.24 1016.24 1016.28 1016.28 1016.32 1016.28 1016.28 1016.28 1016.28 1016.32 1016.36 1016.40 1016.44 1016.48 1016.56 1016.72 1016.96 1017.16 1017.44 1017.68 1017.84 1018.00 1018.20 1018.40 1018.56 1018.56 1018.68 1018.84 1019.04 1019.12 1019.20 1019.32 1019.48 1019.60 1019.68 1019.68 1019.76 1019.80
1018.56 1018.44 1018.36 1018.28 1018.16 1018.12 1018.00 1017.88 1017.80 1017.68 1017.56 1017.40 1017.28 1017.20 1017.12 1017.12 1017.04 1017.00 1016.96 1016.92 1016.84 1016.80 1016.80 1016.80 1016.76 1016.72 1016.68 1016.64 1016.56 1016.52 1016.48 1016.44 1016.44 1016.44 1016.48 1016.52 1016.56 1016.56 1016.52 1016.52 1016.52 1016.56 1016.60 1016.64 1016.72 1016.84 1016.96 1017.12 1017.36 1017.60 1017.80 1018.00 1018.12 1018.28 1018.44 1018.56 1018.72 1018.84 1019.00 1019.16 1019.24 1019.32 1019.40 1019.56 1019.64 1019.72 1019.80 1019.84 1019.92
1018.72 1018.64 1018.56 1018.40 1018.32 1018.24 1018.16 1018.08 1018.00 1017.84 1017.72 1017.60 1017.48 1017.40 1017.36 1017.32 1017.28 1017.20 1017.12 1017.08 1017.08 1017.08 1017.04 1017.00 1016.96 1016.96 1016.92 1016.84 1016.76 1016.72 1016.72 1016.68 1016.64 1016.64 1016.72 1016.72 1016.76 1016.72 1016.72 1016.72 1016.72 1016.84 1016.88 1016.96 1017.08 1017.20 1017.28 1017.32 1017.56 1017.76 1018.00 1018.12 1018.24 1018.36 1018.44 1018.56 1018.72 1018.96 1019.12 1019.28 1019.36 1019.44 1019.52 1019.56 1019.68 1019.72 1019.84 1019.92 1020.04
1018.92 1018.80 1018.72 1018.56 1018.48 1018.40 1018.28 1018.16 1018.08 1018.00 1017.88 1017.80 1017.68 1017.68 1017.64 1017.60 1017.56 1017.44 1017.40 1017.32 1017.32 1017.32 1017.24 1017.12 1017.12 1017.08 1017.04 1017.00 1016.96 1016.92 1016.92 1016.92 1016.92 1016.92 1016.96 1016.96 1017.00 1017.00 1017.00 1017.00 1017.04 1017.12 1017.16 1017.24 1017.36 1017.52 1017.56 1017.52 1017.68 1017.92 1018.16 1018.36 1018.52 1018.56 1018.60 1018.64 1018.80 1019.00 1019.20 1019.36 1019.48 1019.56 1019.64 1019.68 1019.76 1019.80 1019.88 1020.00 1020.16
1019.08 1019.00 1018.84 1018.76 1018.68 1018.56 1018.44 1018.40 1018.28 1018.12 1018.00 1017.96 1017.96 1017.96 1018.00 1017.92 1017.84 1017.76 1017.68 1017.68 1017.60 1017.56 1017.48 1017.40 1017.32 1017.28 1017.16 1017.12 1017.12 1017.16 1017.20 1017.20 1017.24 1017.20 1017.20 1017.28 1017.28 1017.28 1017.32 1017.40 1017.32 1017.36 1017.44 1017.52 1017.60 1017.72 1017.84 1017.80 1017.84 1018.04 1018.32 1018.56 1018.76 1018.84 1018.84 1018.84 1018.88 1019.04 1019.24 1019.44 1019.56 1019.68 1019.76 1019.84 1019.88 1019.96 1020.04 1020.16 1020.28
1019.16 1019.08 1019.00 1018.92 1018.80 1018.72 1018.64 1018.56 1018.44 1018.32 1018.20 1018.16 1018.20 1018.24 1018.20 1018.12 1018.08 1018.04 1017.96 1017.88 1017.88 1017.84 1017.76 1017.68 1017.60 1017.52 1017.40 1017.32 1017.36 1017.36 1017.40 1017.44 1017.48 1017.48 1017.48 1017.52 1017.56 1017.60 1017.68 1017.68 1017.68 1017.68 1017.72 1017.84 1017.92 1018.00 1018.04 1018.04 1018.12 1018.28 1018.52 1018.80 1019.00 1019.08 1019.12 1019.08 1019.08 1019.16 1019.32 1019.56 1019.68 1019.84 1019.96 1020.00 1020.08 1020.12 1020.20 1020.28 1020.40
1019.28 1019.20 1019.12 1019.00 1018.96 1018.88 1018.80 1018.72 1018.60 1018.52 1018.44 1018.40 1018.40 1018.40 1018.40 1018.32 1018.28 1018.24 1018.16 1018.20 1018.20 1018.12 1018.04 1018.00 1017.92 1017.84 1017.72 1017.68 1017.64 1017.64 1017.64 1017.68 1017.68 1017.76 1017.80 1017.80 1017.80 1017.88 1017.96 1018.00 1018.00 1018.00 1018.12 1018.20 1018.20 1018.24 1018.28 1018.40 1018.48 1018.60 1018.72 1018.92 1019.12 1019.24 1019.28 1019.28 1019.28 1019.36 1019.48 1019.64 1019.80 1019.96 1020.08 1020.20 1020.28 1020.28 1020.36 1020.40 1020.52
1019.40 1019.36 1019.28 1019.16 1019.12 1019.00 1018.92 1018.84 1018.76 1018.68 1018.60 1018.60 1018.60 1018.56 1018.56 1018.48 1018.48 1018.44 1018.44 1018.40 1018.40 1018.32 1018.32 1018.28 1018.20 1018.12 1018.08 1018.04 1018.04 1018.00 1018.00 1018.00 1018.00 1018.08 1018.08 1018.08 1018.16 1018.24 1018.28 1018.28 1018.32 1018.40 1018.44 1018.52 1018.52 1018.56 1018.56 1018.68 1018.80 1018.96 1019.04 1019.12 1019.28 1019.36 1019.40 1019.40 1019.48 1019.56 1019.60 1019.72 1019.92 1020.12 1020.24 1020.32 1020.40 1020.48 1020.52 1020.56 1020.64
1019.56 1019.48 1019.40 1019.32 1019.28 1019.12 1019.04 1019.00 1018.88 1018.84 1018.80 1018.80 1018.76 1018.72 1018.68 1018.64 1018.68 1018.64 1018.60 1018.56 1018.56 1018.56 1018.56 1018.56 1018.48 1018.40 1018.36 1018.40 1018.40 1018.40 1018.40 1018.36 1018.36 1018.40 1018.40 1018.48 1018.52 1018.56 1018.60 1018.60 1018.64 1018.68 1018.72 1018.80 1018.80 1018.80 1018.84 1018.92 1019.04 1019.16 1019.28 1019.28 1019.36 1019.40 1019.52 1019.56 1019.64 1019.68 1019.80 1019.96 1020.04 1020.20 1020.40 1020.48 1020.60 1020.64 1020.68 1020.72 1020.80
1019.68 1019.60 1019.52 1019.44 1019.40 1019.28 1019.20 1019.12 1019.04 1019.00 1019.00 1019.00 1018.92 1018.88 1018.84 1018.84 1018.84 1018.80 1018.72 1018.68 1018.68 1018.72 1018.76 1018.76 1018.72 1018.68 1018.68 1018.72 1018.72 1018.72 1018.72 1018.72 1018.72 1018.76 1018.80 1018.84 1018.84 1018.84 1018.88 1018.88 1018.92 1018.96 1019.00 1019.04 1019.04 1019.08 1019.12 1019.16 1019.24 1019.32 1019.40 1019.48 1019.52 1019.56 1019.68 1019.76 1019.80 1019.88 1020.00 1020.12 1020.24 1020.36 1020.52 1020.68 1020.76 1020.84 1020.84 1020.92 1021.00
1019.80 1019.68 1019.64 1019.56 1019.48 1019.40 1019.36 1019.28 1019.28 1019.24 1019.20 1019.16 1019.12 1019.08 1019.04 1019.04 1019.00 1018.92 1018.84 1018.84 1018.84 1018.88 1018.88 1018.88 1018.84 1018.84 1018.92 1018.96 1018.96 1018.96 1019.00 1019.00 1019.04 1019.04 1019.08 1019.12 1019.16 1019.16 1019.16 1019.16 1019.20 1019.24 1019.28 1019.32 1019.36 1019.40 1019.40 1019.44 1019.44 1019.52 1019.60 1019.68 1019.76 1019.84 1019.88 1019.92 1020.00 1020.12 1020.20 1020.32 1020.40 1020.56 1020.72 1020.84 1020.96 1021.00 1021.00 1021.00 1021.12
1019.88 1019.84 1019.76 1019.68 1019.64 1019.56 1019.48 1019.44 1019.44 1019.40 1019.40 1019.40 1019.36 1019.32 1019.28 1019.20 1019.12 1019.08 1019.04 1019.00 1019.04 1019.04 1019.04 1019.00 1019.00 1019.04 1019.12 1019.20 1019.20 1019.16 1019.20 1019.28 1019.28 1019.28 1019.32 1019.40 1019.40 1019.40 1019.44 1019.48 1019.52 1019.56 1019.56 1019.60 1019.68 1019.68 1019.72 1019.72 1019.76 1019.84 1019.84 1019.92 1020.00 1020.08 1020.12 1020.12 1020.20 1020.28 1020.40 1020.56 1020.64 1020.76 1020.88 1021.00 1021.08 1021.12 1021.12 1021.16 1021.24
1020.00 1019.92 1019.84 1019.84 1019.76 1019.68 1019.64 1019.60 1019.60 1019.64 1019.60 1019.56 1019.56 1019.52 1019.40 1019.40 1019.32 1019.28 1019.24 1019.24 1019.24 1019.20 1019.20 1019.16 1019.20 1019.24 1019.28 1019.36 1019.36 1019.36 1019.40 1019.40 1019.40 1019.48 1019.52 1019.56 1019.60 1019.64 1019.68 1019.72 1019.76 1019.76 1019.84 1019.84 1019.92 1020.00 1020.00 1020.04 1020.12 1020.12 1020.12 1020.16 1020.24 1020.28 1020.32 1020.40 1020.48 1020.56 1020.68 1020.76 1020.84 1020.96 1021.08 1021.12 1021.24 1021.28 1021.32 1021.36 1021.40
1020.12 1020.04 1020.00 1019.96 1019.88 1019.84 1019.80 1019.80 1019.80 1019.80 1019.76 1019.72 1019.68 1019.60 1019.56 1019.56 1019.52 1019.44 1019.40 1019.40 1019.40 1019.40 1019.36 1019.36 1019.36 1019.40 1019.40 1019.44 1019.48 1019.52 1019.52 1019.56 1019.56 1019.60 1019.68 1019.68 1019.76 1019.84 1019.84 1019.88 1019.92 1020.00 1020.00 1020.08 1020.12 1020.16 1020.24 1020.28 1020.28 1020.32 1020.36 1020.40 1020.40 1020.52 1020.60 1020.68 1020.76 1020.84 1020.88 1021.00 1021.04 1021.12 1021.24 1021.28 1021.36 1021.40 1021.40 1021.40 1021.40
1020.24 1020.16 1020.12 1020.08 1020.04 1020.00 1020.00 1020.00 1019.96 1019.96 1019.92 1019.88 1019.84 1019.76 1019.68 1019.68 1019.64 1019.56 1019.56 1019.56 1019.56 1019.56 1019.56 1019.52 1019.48 1019.52 1019.56 1019.60 1019.64 1019.64 1019.64 1019.68 1019.72 1019.80 1019.84 1019.92 1019.96 1020.00 1020.04 1020.08 1020.12 1020.16 1020.20 1020.24 1020.28 1020.32 1020.40 1020.44 1020.48 1020.52 1020.56 1020.60 1020.64 1020.72 1020.84 1020.88 1021.00 1021.04 1021.12 1021.16 1021.24 1021.28 1021.36 1021.40 1021.44 1021.48 1021.48 1021.48 1021.56
1020.32 1020.28 1020.24 1020.20 1020.20 1020.16 1020.16 1020.12 1020.12 1020.08 1020.04 1020.00 1019.96 1019.88 1019.84 1019.84 1019.76 1019.72 1019.68 1019.68 1019.68 1019.68 1019.68 1019.68 1019.68 1019.68 1019.72 1019.72 1019.76 1019.76 1019.80 1019.88 1019.92 1020.00 1020.04 1020.12 1020.12 1020.16 1020.20 1020.28 1020.28 1020.32 1020.36 1020.40 1020.44 1020.52 1020.56 1020.68 1020.72 1020.72 1020.76 1020.84 1020.88 1020.96 1021.00 1021.08 1021.16 1021.24 1021.28 1021.36 1021.40 1021.48 1021.52 1021.56 1021.60 1021.64 1021.64 1021.68 1021.68
1020.40 1020.32 1020.28 1020.32 1020.32 1020.32 1020.28 1020.28 1020.24 1020.20 1020.16 1020.12 1020.04 1020.00 1019.96 1019.92 1019.88 1019.84 1019.84 1019.84 1019.84 1019.84 1019.84 1019.84 1019.88 1019.88 1019.84 1019.84 1019.92 1019.96 1020.00 1020.04 1020.12 1020.16 1020.20 1020.24 1020.28 1020.32 1020.40 1020.40 1020.44 1020.48 1020.52 1020.56 1020.64 1020.72 1020.80 1020.84 1020.88 1020.92 1020.96 1021.04 1021.12 1021.16 1021.24 1021.28 1021.36 1021.40 1021.48 1021.56 1021.60 1021.68 1021.72 1021.76 1021.80 1021.84 1021.84 1021.88 1021.92
1020.40 1020.40 1020.36 1020.40 1020.40 1020.40 1020.40 1020.36 1020.32 1020.28 1020.28 1020.20 1020.16 1020.12 1020.08 1020.04 1020.00 1020.00 1020.00 1020.00 1020.04 1020.00 1020.00 1020.00 1020.00 1020.04 1020.04 1020.04 1020.12 1020.12 1020.16 1020.24 1020.28 1020.32 1020.40 1020.40 1020.44 1020.52 1020.56 1020.56 1020.60 1020.68 1020.72 1020.72 1020.84 1020.92 1021.00 1021.04 1021.12 1021.12 1021.16 1021.24 1021.28 1021.40 1021.44 1021.52 1021.56 1021.64 1021.68 1021.72 1021.80 1021.84 1021.88 1021.96 1022.00 1022.00 1022.04 1022.08 1022.12
1020.40 1020.40 1020.40 1020.40 1020.40 1020.40 1020.40 1020.40 1020.36 1020.36 1020.32 1020.28 1020.24 1020.20 1020.16 1020.12 1020.12 1020.12 1020.16 1020.20 1020.16 1020.12 1020.12 1020.16 1020.16 1020.20 1020.24 1020.24 1020.28 1020.32 1020.40 1020.40 1020.48 1020.52 1020.56 1020.60 1020.68 1020.72 1020.76 1020.76 1020.80 1020.84 1020.88 1020.92 1021.00 1021.08 1021.12 1021.24 1021.28 1021.36 1021.40 1021.44 1021.56 1021.60 1021.68 1021.72 1021.76 1021.84 1021.88 1021.92 1022.00 1022.04 1022.12 1022.12 1022.12 1022.16 1022.16 1022.24 1022.28
1020.44 1020.44 1020.44 1020.44 1020.44 1020.44 1020.44 1020.44 1020.40 1020.40 1020.40 1020.36 1020.28 1020.28 1020.28 1020.24 1020.28 1020.28 1020.28 1020.32 1020.28 1020.28 1020.28 1020.32 1020.36 1020.36 1020.40 1020.40 1020.40 1020.48 1020.56 1020.60 1020.68 1020.72 1020.76 1020.84 1020.92 1020.96 1021.00 1021.00 1021.00 1021.04 1021.08 1021.12 1021.20 1021.28 1021.36 1021.40 1021.48 1021.56 1021.64 1021.68 1021.76 1021.84 1021.88 1021.92 1022.00 1022.00 1022.08 1022.12 1022.20 1022.28 1022.28 1022.28 1022.32 1022.32 1022.32 1022.32 1022.36
1020.56 1020.56 1020.52 1020.48 1020.44 1020.44 1020.44 1020.44 1020.44 1020.40 1020.40 1020.40 1020.40 1020.40 1020.36 1020.36 1020.40 1020.40 1020.40 1020.40 1020.40 1020.40 1020.44 1020.48 1020.52 1020.56 1020.56 1020.56 1020.60 1020.68 1020.72 1020.80 1020.84 1020.96 1021.00 1021.08 1021.12 1021.16 1021.20 1021.24 1021.24 1021.28 1021.28 1021.40 1021.40 1021.52 1021.56 1021.68 1021.72 1021.80 1021.84 1021.92 1022.00 1022.00 1022.04 1022.12 1022.12 1022.20 1022.28 1022.32 1022.40 1022.44 1022.48 1022.52 1022.52 1022.56 1022.52 1022.52 1022.48
1020.56 1020.56 1020.56 1020.56 1020.56 1020.56 1020.52 1020.52 1020.52 1020.48 1020.48 1020.48 1020.48 1020.52 1020.48 1020.52 1020.52 1020.52 1020.52 1020.52 1020.52 1020.56 1020.56 1020.64 1020.68 1020.72 1020.72 1020.72 1020.80 1020.84 1020.88 1020.96 1021.04 1021.12 1021.16 1021.28 1021.28 1021.28 1021.32 1021.40 1021.40 1021.40 1021.48 1021.56 1021.60 1021.68 1021.76 1021.84 1021.92 1021.96 1022.00 1022.08 1022.12 1022.16 1022.24 1022.24 1022.28 1022.36 1022.44 1022.48 1022.56 1022.60 1022.68 1022.72 1022.72 1022.72 1022.72 1022.72 1022.68
1020.60 1020.60 1020.60 1020.64 1020.64 1020.60 1020.60 1020.60 1020.56 1020.56 1020.56 1020.60 1020.60 1020.60 1020.60 1020.60 1020.60 1020.60 1020.60 1020.60 1020.64 1020.64 1020.68 1020.72 1020.76 1020.84 1020.84 1020.88 1020.92 1021.00 1021.04 1021.08 1021.12 1021.24 1021.28 1021.28 1021.32 1021.32 1021.36 1021.40 1021.40 1021.40 1021.40 1021.44 1021.56 1021.68 1021.80 1021.88 1022.00 1022.12 1022.12 1022.16 1022.24 1022.28 1022.36 1022.40 1022.52 1022.56 1022.60 1022.68 1022.72 1022.80 1022.84 1022.84 1022.88 1022.92 1022.92 1022.92 1022.88
1020.68 1020.68 1020.72 1020.72 1020.68 1020.68 1020.68 1020.68 1020.68 1020.68 1020.68 1020.68 1020.68 1020.72 1020.72 1020.72 1020.72 1020.72 1020.72 1020.72 1020.72 1020.76 1020.80 1020.84 1020.84 1020.92 1021.00 1021.04 1021.08 1021.12 1021.16 1021.20 1021.24 1021.28 1021.28 1021.32 1021.36 1021.36 1021.36 1021.36 1021.36 1021.36 1021.36 1021.40 1021.56 1021.68 1021.80 1021.88 1022.04 1022.16 1022.28 1022.28 1022.36 1022.40 1022.56 1022.64 1022.72 1022.76 1022.84 1022.88 1022.92 1023.00 1023.00 1023.04 1023.12 1023.12 1023.12 1023.12 1023.08
1020.76 1020.76 1020.72 1020.72 1020.72 1020.76 1020.76 1020.76 1020.76 1020.76 1020.76 1020.76 1020.76 1020.76 1020.80 1020.84 1020.84 1020.84 1020.84 1020.88 1020.92 1020.96 1020.96 1021.00 1021.00 1021.08 1021.12 1021.20 1021.24 1021.28 1021.28 1021.36 1021.40 1021.40 1021.44 1021.44 1021.48 1021.48 1021.44 1021.44 1021.44 1021.44 1021.48 1021.52 1021.56 1021.68 1021.80 1021.92 1022.08 1022.20 1022.32 1022.44 1022.56 1022.64 1022.76 1022.84 1022.88 1022.96 1023.00 1023.08 1023.12 1023.16 1023.20 1023.28 1023.32 1023.28 1023.28 1023.28 1023.24
1020.80 1020.80 1020.80 1020.80 1020.84 1020.84 1020.84 1020.84 1020.84 1020.84 1020.84 1020.84 1020.88 1020.92 1020.96 1021.00 1021.00 1021.04 1021.04 1021.08 1021.12 1021.12 1021.12 1021.20 1021.28 1021.28 1021.32 1021.40 1021.44 1021.44 1021.52 1021.56 1021.56 1021.56 1021.56 1021.56 1021.56 1021.56 1021.56 1021.56 1021.56 1021.56 1021.56 1021.60 1021.68 1021.76 1021.84 1021.96 1022.12 1022.28 1022.44 1022.64 1022.72 1022.84 1022.92 1023.00 1023.08 1023.16 1023.24 1023.28 1023.32 1023.40 1023.40 1023.44 1023.48 1023.48 1023.48 1023.44 1023.40
1020.88 1020.84 1020.84 1020.84 1020.88 1020.88 1020.88 1020.88 1020.92 1020.96 1021.00 1021.00 1021.04 1021.08 1021.12 1021.12 1021.16 1021.20 1021.24 1021.24 1021.28 1021.32 1021.40 1021.40 1021.44 1021.48 1021.56 1021.60 1021.64 1021.68 1021.72 1021.72 1021.72 1021.72 1021.72 1021.72 1021.72 1021.68 1021.68 1021.68 1021.68 1021.68 1021.64 1021.68 1021.72 1021.84 1021.92 1022.04 1022.24 1022.40 1022.60 1022.80 1022.92 1023.00 1023.12 1023.16 1023.28 1023.36 1023.40 1023.44 1023.56 1023.56 1023.60 1023.64 1023.64 1023.68 1023.68 1023.60 1023.56
1020.96 1020.96 1020.96 1020.96 1020.96 1021.00 1021.00 1021.00 1021.00 1021.04 1021.12 1021.16 1021.20 1021.24 1021.28 1021.32 1021.36 1021.40 1021.40 1021.48 1021.56 1021.56 1021.60 1021.64 1021.68 1021.72 1021.76 1021.84 1021.84 1021.92 1021.96 1021.96 1021.96 1021.92 1021.88 1021.92 1021.92 1021.92 1021.88 1021.88 1021.84 1021.80 1021.76 1021.76 1021.84 1022.00 1022.12 1022.32 1022.48 1022.64 1022.80 1023.00 1023.12 1023.24 1023.28 1023.40 1023.44 1023.52 1023.56 1023.68 1023.68 1023.72 1023.76 1023.76 1023.80 1023.80 1023.76 1023.68 1023.68
1021.04 1021.04 1021.04 1021.04 1021.04 1021.08 1021.12 1021.12 1021.12 1021.20 1021.24 1021.32 1021.32 1021.40 1021.44 1021.52 1021.56 1021.60 1021.64 1021.68 1021.72 1021.76 1021.80 1021.84 1021.88 1021.96 1022.00 1022.08 1022.12 1022.12 1022.12 1022.12 1022.12 1022.12 1022.12 1022.08 1022.08 1022.08 1022.08 1022.04 1022.00 1021.92 1021.88 1021.92 1022.04 1022.24 1022.40 1022.56 1022.72 1022.84 1023.00 1023.16 1023.32 1023.44 1023.48 1023.56 1023.56 1023.68 1023.76 1023.84 1023.84 1023.84 1023.88 1023.92 1023.92 1023.92 1023.88 1023.84 1023.84
1021.12 1021.12 1021.12 1021.12 1021.16 1021.20 1021.24 1021.28 1021.28 1021.36 1021.40 1021.44 1021.48 1021.56 1021.64 1021.68 1021.76 1021.84 1021.84 1021.88 1021.96 1022.00 1022.00 1022.04 1022.12 1022.20 1022.28 1022.28 1022.32 1022.32 1022.32 1022.32 1022.32 1022.28 1022.28 1022.28 1022.24 1022.20 1022.16 1022.12 1022.08 1022.08 1022.12 1022.16 1022.32 1022.52 1022.68 1022.80 1022.92 1023.04 1023.16 1023.32 1023.44 1023.60 1023.68 1023.68 1023.80 1023.84 1023.92 1024.00 1024.04 1024.08 1024.08 1024.08 1024.08 1024.12 1024.12 1024.08 1024.08
1021.24 1021.24 1021.28 1021.28 1021.32 1021.36 1021.40 1021.40 1021.48 1021.48 1021.56 1021.60 1021.68 1021.72 1021.80 1021.84 1021.96 1022.00 1022.00 1022.08 1022.12 1022.20 1022.24 1022.28 1022.36 1022.40 1022.44 1022.44 1022.44 1022.48 1022.48 1022.48 1022.44 1022.44 1022.40 1022.40 1022.32 1022.28 1022.24 1022.20 1022.24 1022.28 1022.36 1022.48 1022.56 1022.72 1022.84 1022.96 1023.08 1023.16 1023.28 1023.40 1023.56 1023.76 1023.88 1023.92 1024.00 1024.08 1024.12 1024.20 1024.28 1024.28 1024.28 1024.32 1024.32 1024.32 1024.28 1024.28 1024.28
1021.32 1021.32 1021.40 1021.40 1021.44 1021.48 1021.56 1021.56 1021.60 1021.64 1021.68 1021.76 1021.84 1021.88 1021.96 1022.04 1022.12 1022.16 1022.24 1022.32 1022.36 1022.40 1022.44 1022.52 1022.56 1022.60 1022.60 1022.64 1022.60 1022.60 1022.60 1022.60 1022.60 1022.60 1022.56 1022.48 1022.40 1022.36 1022.36 1022.40 1022.48 1022.56 1022.60 1022.72 1022.80 1022.92 1023.00 1023.12 1023.20 1023.28 1023.40 1023.56 1023.80 1023.92 1024.00 1024.08 1024.16 1024.28 1024.36 1024.40 1024.44 1024.48 1024.52 1024.52 1024.56 1024.56 1024.52 1024.48 1024.44
1021.40 1021.44 1021.52 1021.56 1021.60 1021.64 1021.68 1021.68 1021.76 1021.80 1021.84 1021.92 1022.00 1022.08 1022.12 1022.24 1022.28 1022.32 1022.40 1022.48 1022.56 1022.60 1022.72 1022.76 1022.80 1022.80 1022.80 1022.84 1022.80 1022.80 1022.76 1022.80 1022.80 1022.76 1022.72 1022.64 1022.60 1022.60 1022.68 1022.76 1022.84 1022.84 1022.84 1022.92 1023.00 1023.08 1023.12 1023.20 1023.28 1023.40 1023.60 1023.80 1024.00 1024.16 1024.24 1024.32 1024.40 1024.48 1024.56 1024.56 1024.60 1024.64 1024.64 1024.64 1024.64 1024.64 1024.64 1024.60 1024.56
1021.56 1021.56 1021.64 1021.64 1021.68 1021.76 1021.80 1021.84 1021.88 1021.96 1022.00 1022.08 1022.16 1022.24 1022.28 1022.40 1022.44 1022.52 1022.56 1022.64 1022.72 1022.80 1022.88 1023.00 1023.00 1023.00 1023.00 1023.00 1023.00 1023.00 1022.96 1022.96 1022.96 1022.92 1022.88 1022.88 1022.92 1023.00 1023.12 1023.20 1023.24 1023.12 1023.00 1023.04 1023.12 1023.20 1023.28 1023.32 1023.44 1023.60 1023.84 1024.04 1024.28 1024.40 1024.44 1024.52 1024.60 1024.72 1024.72 1024.72 1024.76 1024.80 1024.80 1024.76 1024.76 1024.72 1024.72 1024.68 1024.64
1021.64 1021.68 1021.68 1021.72 1021.84 1021.84 1021.92 1021.96 1022.00 1022.08 1022.16 1022.24 1022.28 1022.40 1022.48 1022.56 1022.60 1022.68 1022.72 1022.72 1022.84 1022.96 1023.08 1023.12 1023.16 1023.16 1023.20 1023.20 1023.24 1023.20 1023.20 1023.16 1023.12 1023.12 1023.12 1023.20 1023.28 1023.36 1023.40 1023.48 1023.56 1023.36 1023.16 1023.12 1023.20 1023.28 1023.40 1023.48 1023.60 1023.76 1024.00 1024.24 1024.40 1024.52 1024.56 1024.68 1024.76 1024.84 1024.84 1024.88 1024.92 1024.92 1024.88 1024.84 1024.84 1024.80 1024.76 1024.68 1024.60
1021.72 1021.76 1021.80 1021.84 1021.92 1022.00 1022.04 1022.08 1022.12 1022.20 1022.28 1022.40 1022.44 1022.52 1022.60 1022.68 1022.76 1022.84 1022.84 1022.84 1023.00 1023.12 1023.24 1023.28 1023.36 1023.36 1023.36 1023.36 1023.36 1023.40 1023.40 1023.40 1023.36 1023.40 1023.44 1023.56 1023.60 1023.64 1023.64 1023.64 1023.64 1023.60 1023.48 1023.28 1023.28 1023.40 1023.48 1023.56 1023.68 1023.84 1024.04 1024.28 1024.48 1024.60 1024.72 1024.80 1024.88 1024.96 1025.00 1025.00 1025.04 1025.00 1024.96 1024.92 1024.88 1024.84 1024.80 1024.68 1024.40
1021.84 1021.88 1021.92 1022.00 1022.04 1022.12 1022.16 1022.24 1022.28 1022.32 1022.40 1022.52 1022.56 1022.64 1022.72 1022.84 1022.88 1023.00 1023.00 1023.08 1023.16 1023.28 1023.36 1023.40 1023.48 1023.48 1023.48 1023.44 1023.44 1023.52 1023.56 1023.64 1023.64 1023.64 1023.68 1023.80 1023.80 1023.72 1023.72 1023.76 1023.76 1023.84 1023.72 1023.40 1023.36 1023.40 1023.56 1023.64 1023.76 1023.92 1024.12 1024.40 1024.52 1024.68 1024.76 1024.84 1025.00 1025.08 1025.12 1025.16 1025.12 1025.08 1025.00 1024.96 1024.92 1024.84 1024.76 1024.68 1024.40
1021.92 1022.00 1022.00 1022.04 1022.12 1022.20 1022.28 1022.36 1022.40 1022.44 1022.52 1022.60 1022.72 1022.80 1022.84 1022.96 1023.00 1023.12 1023.20 1023.28 1023.40 1023.44 1023.56 1023.60 1023.64 1023.64 1023.60 1023.56 1023.56 1023.64 1023.68 1023.80 1023.84 1023.88 1023.88 1023.92 1023.84 1023.80 1023.76 1023.88 1023.92 1023.92 1023.80 1023.48 1023.36 1023.40 1023.56 1023.68 1023.80 1023.96 1024.20 1024.48 1024.56 1024.68 1024.76 1024.84 1025.00 1025.16 1025.24 1025.28 1025.28 1025.16 1025.08 1025.00 1025.00 1024.92 1024.84 1024.72 1024.56
1022.00 1022.04 1022.08 1022.12 1022.16 1022.28 1022.32 1022.40 1022.48 1022.56 1022.60 1022.68 1022.76 1022.84 1022.96 1023.00 1023.12 1023.28 1023.40 1023.52 1023.56 1023.68 1023.68 1023.72 1023.80 1023.80 1023.72 1023.68 1023.68 1023.76 1023.84 1023.88 1023.92 1024.00 1024.00 1024.00 1023.96 1023.92 1023.88 1023.96 1024.00 1023.92 1023.80 1023.52 1023.40 1023.40 1023.56 1023.68 1023.80 1024.00 1024.24 1024.52 1024.60 1024.68 1024.72 1024.84 1025.04 1025.20 1025.28 1025.32 1025.32 1025.28 1025.24 1025.16 1025.04 1024.96 1024.88 1024.84 1024.72
Wind_Speed
5 5 4 4 4 3 2 2 2 2 2 2 2 2 2 2 2 3 3 3 3 3 3 4 4 4 5 5 5 5 5 5 6 6 6 5 4 4 4 3 3 2 3 3 4 4 4 5 4 3 2 2 2 2 2 2 2 2 2 2 2 2 2 2 2 2 1 1 1
6 6 5 5 4 3 3 3 3 3 3 3 2 2 2 2 3 3 4 4 4 3 3 4 4 5 6 7 7 7 7 6 7 6 6 6 6 5 5 5 4 3 3 3 3 3 4 4 4 3 3 2 3 3 3 3 3 4 4 4 3 3 2 3 3 3 2 2 2
6 6 5 5 5 4 3 3 3 4 4 3 3 3 3 3 3 4 4 4 4 4 4 4 5 6 7 8 8 7 7 7 7 7 7 7 7 7 6 5 5 5 5 4 4 5 5 5 4 4 3 3 3 3 3 3 4 4 5 4 3 2 3 3 3 3 3 3 3
6 6 5 5 6 5 4 3 4 4 4 3 3 3 4 4 4 4 4 4 5 5 5 5 5 6 7 7 8 8 8 8 8 8 8 8 8 8 7 7 7 7 7 7 7 7 6 6 5 4 3 4 4 4 4 3 4 4 3 3 3 3 3 3 2 2 2 2 3
6 6 5 5 6 5 4 4 4 4 4 3 4 4 4 4 4 4 4 4 5 5 5 5 5 5 6 7 8 9 9 9 9 8 8 8 8 8 8 9 8 8 8 8 8 8 7 7 5 4 4 4 4 4 4 5 5 5 4 3 3 2 2 2 2 2 2 2 2
6 6 6 5 6 5 5 4 4 4 4 4 5 5 5 4 4 5 5 5 5 5 6 6 5 5 6 7 8 9 9 9 9 8 8 9 8 9 9 10 9 8 8 8 8 7 7 6 5 4 4 4 4 4 4 5 5 5 4 3 3 3 2 2 2 2 3 3 3
5 5 5 6 6 6 5 5 4 4 4 5 7 7 6 5 5 6 6 5 5 5 6 5 5 5 6 7 8 8 8 8 8 9 9 8 9 9 9 9 9 9 8 8 7 6 6 5 5 5 4 4 3 3 4 4 4 5 5 4 3 3 3 3 2 2 3 5 5
4 5 5 5 5 6 6 6 5 4 5 6 7 7 6 6 6 6 6 5 5 5 5 5 6 6 7 7 7 8 8 8 8 8 8 8 9 9 9 9 9 9 9 8 7 6 6 5 5 5 4 4 3 3 3 4 5 5 5 5 4 3 3 3 3 3 4 5 5
4 5 5 5 5 5 5 5 5 5 6 6 6 6 6 6 6 6 6 5 5 5 5 5 6 7 7 7 7 7 7 8 8 8 8 8 8 8 8 8 8 8 8 7 7 7 6 5 5 4 4 3 3 3 4 5 6 6 6 5 4 4 4 3 3 4 4 5 6
5 5 5 5 5 5 5 5 5 6 6 7 6 6 6 7 6 6 5 4 5 5 5 5 6 7 7 8 7 7 6 6 7 7 8 8 8 8 7 7 7 7 6 6 6 6 6 5 5 4 4 3 4 4 4 5 6 6 5 4 5 5 5 4 4 4 4 5 6
5 5 4 4 5 5 5 5 5 6 6 6 6 6 6 7 6 5 4 4 5 6 6 5 6 7 7 7 7 6 6 6 6 7 7 8 8 7 7 6 7 7 6 6 5 4 4 4 5 5 5 4 4 5 5 5 6 6 6 5 6 6 6 5 4 4 4 5 6
5 4 4 4 5 5 5 5 5 6 6 6 6 6 6 6 5 5 4 5 6 6 6 6 7 7 7 6 6 6 6 6 7 7 7 8 7 7 7 7 7 7 7 6 5 4 4 4 5 5 5 5 4 4 5 6 6 7 6 6 6 6 6 5 4 4 3 4 5
4 4 4 5 5 5 5 5 5 5 6 6 6 6 6 5 6 5 6 7 7 6 5 6 7 7 7 6 6 6 6 7 7 7 7 7 7 7 7 8 8 8 7 6 6 5 5 4 5 6 6 6 5 5 5 6 6 6 6 6 6 6 5 5 4 3 4 4 5
4 4 4 5 5 5 5 5 5 5 6 6 6 5 5 5 5 6 6 6 6 5 5 6 7 7 7 7 7 7 7 7 8 8 8 8 8 8 8 8 8 8 8 7 7 7 7 6 6 7 7 7 6 6 6 6 6 6 6 6 6 5 5 4 4 4 4 5 5
5 5 5 5 5 5 5 5 5 5 5 5 5 5 4 5 5 5 6 6 5 5 5 5 6 6 7 7 7 7 8 8 8 9 9 9 9 9 9 9 8 8 8 8 8 8 8 8 7 7 7 7 7 7 7 7 6 6 5 5 5 5 4 3 3 4 4 5 5
5 5 5 5 5 5 5 5 4 4 4 4 4 4 4 4 4 5 5 6 5 5 5 5 5 6 6 7 7 7 8 8 8 9 9 9 9 9 9 8 8 8 8 8 8 8 8 7 7 7 7 7 7 7 7 7 6 6 5 5 5 4 4 3 4 4 4 5 5
4 4 4 4 5 5 5 4 4 4 4 4 4 4 4 4 4 5 5 5 5 5 5 6 5 6 6 6 6 7 7 8 8 8 8 9 9 9 8 8 8 8 8 8 8 8 8 7 7 7 7 7 7 7 7 7 6 6 6 5 5 5 4 4 4 4 4 5 5
3 4 4 4 5 5 4 4 4 4 4 4 4 4 4 4 4 5 5 6 6 6 6 7 6 6 6 7 6 7 7 8 8 8 8 8 8 8 8 8 8 8 8 8 8 8 8 7 7 7 7 7 7 7 7 7 7 6 6 6 6 5 5 5 5 4 4 5 5
3 3 4 4 4 4 3 3 3 4 4 4 4 4 4 5 5 6 6 6 6 6 6 7 7 6 7 7 7 7 7 7 8 8 8 8 8 8 8 8 8 8 8 8 8 8 8 7 7 7 7 7 7 7 7 7 7 7 7 7 7 7 6 6 5 5 5 5 5
2 3 3 3 3 3 3 3 3 3 3 3 4 4 5 6 6 6 6 6 6 6 7 7 7 7 7 7 8 7 7 7 7 8 8 8 8 8 7 7 8 8 8 8 8 8 8 7 7 8 8 8 8 8 8 7 7 7 7 7 7 7 7 7 6 6 6 5 5
3 3 3 3 3 3 3 3 3 3 3 3 4 5 5 6 6 7 7 6 7 7 7 7 7 7 7 7 8 7 7 6 7 7 8 8 8 7 7 7 7 7 7 8 8 8 8 8 8 8 8 8 8 8 8 7 7 8 7 7 7 7 8 7 7 7 6 6 5
3 3 3 3 3 3 2 3 3 3 3 4 5 5 5 6 6 7 7 6 7 7 7 7 7 7 7 7 7 7 7 7 7 7 7 7 7 6 6 6 7 7 8 8 8 8 9 9 9 9 8 8 8 8 7 7 7 8 8 8 8 8 8 8 7 7 7 6 5
2 2 2 2 3 3 3 3 4 4 5 5 5 6 6 6 6 6 6 6 7 7 7 7 7 7 7 7 8 8 8 8 8 7 7 6 6 6 6 6 6 7 7 7 7 7 8 8 8 8 8 8 7 7 7 7 7 7 7 8 8 8 7 7 7 7 7 6 6
2 2 2 2 3 3 3 3 4 5 5 6 6 6 6 6 6 6 7 7 7 8 7 7 7 7 8 8 8 8 9 8 8 7 6 5 5 5 5 5 5 6 6 6 7 7 7 6 6 6 7 6 7 7 7 7 7 6 7 7 7 7 7 7 7 6 6 6 5
3 3 3 3 3 3 3 4 4 5 5 5 6 6 6 6 6 6 7 7 8 8 8 8 7 7 7 8 7 7 7 7 6 6 5 4 4 4 4 4 4 5 5 7 11 11 11 9 7 6 5 6 6 7 7 7 6 6 6 6 6 6 6 6 6 6 6 5 5
3 3 3 3 3 4 4 4 5 5 5 5 6 6 6 6 6 6 7 7 7 7 7 7 7 7 7 7 6 6 6 5 5 4 4 3 3 3 3 4 4 4 6 9 12 13 13 12 11 8 6 5 6 6 6 6 6 6 5 5 5 5 5 5 5 5 5 5 5
3 3 3 3 4 4 4 4 4 5 5 6 6 6 6 6 6 6 7 7 7 7 7 6 7 7 7 7 7 7 6 5 5 5 5 5 5 5 5 5 4 5 7 11 13 13 13 13 13 11 9 6 5 5 5 4 5 5 5 5 5 5 5 5 4 4 4 4 4
3 3 3 4 4 4 4 4 5 5 6 6 6 6 6 6 7 7 7 7 7 7 6 6 6 6 5 6 7 7 7 6 6 5 6 6 7 7 6 5 5 6 9 13 13 13 13 13 13 12 11 7 5 4 4 4 4 5 4 5 5 5 5 4 4 4 4 4 4
3 3 3 4 4 4 4 4 5 6 6 6 7 7 7 7 7 7 7 7 7 7 6 5 5 5 5 6 6 6 6 6 5 5 6 7 8 7 7 6 6 8 11 14 14 14 13 13 13 12 11 8 5 4 4 4 4 4 4 4 4 4 4 4 3 3 3 3 4
3 3 3 4 4 4 4 5 5 6 6 6 7 7 7 7 7 7 7 8 7 7 6 5 5 6 6 7 6 6 6 6 6 6 7 7 8 8 7 6 6 8 11 14 14 14 13 12 12 11 11 9 7 5 4 4 4 4 4 4 4 4 4 4 4 4 3 3 4
3 3 3 4 4 4 4 5 5 6 6 6 6 7 7 7 7 7 7 7 7 7 7 7 7 7 7 6 6 6 6 6 6 6 6 7 8 7 7 6 6 8 11 14 14 13 12 12 11 11 11 10 7 5 4 4 4 4 4 4 4 4 4 4 4 4 4 4 3
3 3 3 4 4 4 5 5 5 6 6 7 7 7 7 7 7 6 6 6 6 7 7 7 7 7 7 6 5 5 5 6 6 6 6 6 6 7 7 7 7 9 11 13 13 12 12 11 12 12 11 11 8 6 4 4 4 4 4 4 4 4 4 4 3 4 4 3 3
3 3 4 4 4 5 5 5 6 6 6 7 7 7 7 7 6 6 6 6 6 6 6 6 6 6 5 5 4 5 5 5 6 6 6 6 6 7 7 7 7 9 11 12 12 12 12 12 12 12 12 11 8 5 4 4 4 4 4 4 4 4 4 4 3 3 3 2 2
3 3 4 4 4 5 5 5 6 6 6 7 7 7 6 6 6 6 6 5 5 5 5 5 5 4 4 3 4 4 5 5 5 5 6 6 6 7 7 6 6 8 10 12 11 12 12 12 13 13 12 10 7 5 5 4 4 4 4 4 4 4 4 3 3 2 2 2 1
3 3 4 4 4 5 5 5 6 6 6 6 6 6 6 6 6 6 6 6 5 5 4 4 4 3 3 3 4 4 5 5 5 5 6 6 7 7 7 6 5 7 10 11 11 12 12 12 12 12 11 8 6 5 5 5 4 4 4 4 4 4 4 3 3 2 2 1 1
2 3 4 4 4 5 5 5 6 6 6 6 6 6 6 5 5 5 5 6 6 5 4 4 3 3 3 4 4 4 5 5 5 5 6 7 6 6 5 5 4 6 10 12 11 12 12 12 12 11 9 7 5 4 5 4 4 4 4 4 3 4 4 4 3 3 3 2 1
2 3 4 4 4 4 5 5 5 6 6 6 6 5 5 5 4 4 4 5 5 5 4 4 3 3 3 3 3 4 4 4 5 5 6 6 5 4 4 3 3 4 7 11 11 11 11 11 11 9 8 5 4 4 4 4 3 3 3 3 3 3 3 3 3 3 3 3 2
2 3 4 4 4 4 4 5 5 6 5 5 5 4 4 4 3 3 3 4 4 4 4 3 3 3 2 2 3 3 4 4 5 5 5 5 4 3 3 3 2 3 4 7 10 11 10 10 10 8 6 4 3 3 3 3 3 3 3 3 3 3 3 3 3 3 3 4 4
3 3 4 5 5 5 4 5 5 5 5 5 4 4 3 3 3 3 3 3 3 4 4 3 3 2 2 2 3 3 4 5 5 5 4 3 2 2 2 2 2 3 3 3 8 9 9 9 9 8 7 5 4 3 3 3 3 3 3 3 3 3 3 3 3 3 3 4 6
4 4 4 5 5 5 5 5 5 5 4 4 4 4 3 3 3 3 3 3 3 3 3 3 2 2 2 3 4 4 3 4 4 4 3 2 2 3 3 2 1 3 4 1 6 8 8 8 8 8 7 5 4 3 3 3 3 3 2 3 3 3 3 4 3 3 4 4 6
4 4 4 5 5 5 5 5 4 4 4 4 4 4 3 4 3 3 3 3 3 3 2 2 2 2 3 4 4 4 3 3 3 3 3 3 2 3 3 2 2 3 4 2 4 7 7 8 8 8 7 5 4 3 3 3 3 2 2 2 2 2 2 3 3 3 4 4 4
Wind_Direction
353 351 348 344 341 336 330 332 339 340 340 342 346 349 359 26 36 34 31 30 31 27 24 21 16 11 9 11 20 28 33 36 38 41 42 41 38 39 45 55 73 104 131 144 151 150 147 145 144 140 134 128 115 93 69 51 81 110 124 119 109 107 116 134 141 145 146 135 101
355 352 350 352 352 349 350 355 360 1 3 7 11 14 20 32 41 41 38 34 32 31 30 28 24 24 26 30 36 41 44 46 47 47 46 43 40 43 47 53 58 71 95 117 118 114 111 113 113 107 97 87 84 77 64 47 66 79 83 77 71 69 71 74 65 63 65 66 60
356 355 358 1 2 2 4 6 5 4 5 9 16 23 30 36 40 43 41 36 32 34 36 35 31 32 34 37 42 46 49 51 52 53 51 47 44 45 50 57 58 58 61 68 72 76 81 87 91 92 92 92 94 92 86 74 78 82 83 79 79 77 76 76 71 67 65 64 62
358 360 2 4 4 4 4 4 3 4 8 12 20 29 35 37 38 39 41 39 37 38 39 39 38 37 39 43 46 49 51 52 55 57 56 54 50 50 53 58 58 58 59 63 69 75 79 81 82 82 84 88 93 95 96 95 88 87 86 84 82 84 88 92 87 81 76 70 64
359 1 3 4 2 1 1 1 5 10 15 22 32 36 37 36 34 36 40 42 41 38 38 41 46 47 47 49 50 50 50 49 52 54 56 55 53 53 54 57 59 61 64 67 72 77 81 83 81 77 74 76 82 89 96 99 93 89 83 74 70 74 83 89 87 85 83 80 70
356 358 1 4 3 4 4 4 9 16 27 38 43 42 39 35 34 36 40 44 41 37 36 41 47 52 54 54 53 52 51 49 48 50 52 53 52 51 53 54 56 59 62 65 69 74 79 85 85 80 71 65 67 75 87 96 95 93 87 76 65 63 65 67 71 79 84 86 80
353 358 2 5 8 9 9 5 10 20 35 48 47 45 41 36 37 39 41 42 38 35 34 37 40 46 53 57 57 56 53 51 50 49 51 52 51 51 52 52 53 54 56 58 60 62 67 76 84 83 77 69 63 61 67 82 91 92 87 77 65 59 55 53 55 69 80 87 85
358 3 6 7 11 13 12 10 15 28 40 48 46 44 41 39 39 40 41 42 38 35 34 36 35 40 48 55 58 58 57 54 52 50 50 53 52 52 52 52 52 52 52 52 56 56 57 62 72 79 81 79 71 60 58 68 82 86 85 80 70 60 55 55 56 68 80 87 85
6 6 6 9 11 13 14 16 23 35 45 48 44 42 41 42 41 43 45 46 41 37 36 36 35 38 44 49 53 55 57 57 55 52 51 52 53 52 52 51 53 53 52 51 55 58 60 62 65 69 75 82 82 73 68 72 82 85 86 85 78 70 63 61 62 70 81 87 85
6 6 7 10 9 10 14 21 28 37 43 44 40 38 40 42 43 45 48 53 49 45 41 36 37 41 45 46 47 49 52 59 61 60 57 56 56 55 54 54 56 57 57 54 56 61 66 71 72 72 75 83 88 86 82 82 87 87 87 87 85 80 74 67 67 72 79 85 87
6 6 7 10 6 9 18 28 32 35 36 37 33 33 35 37 38 40 47 57 57 52 47 42 44 47 48 47 46 47 49 55 62 64 64 61 59 58 57 58 58 60 60 57 58 65 74 83 87 86 84 83 86 87 87 87 88 87 87 87 88 86 81 73 70 73 79 86 88
6 7 9 9 9 16 26 36 37 36 34 32 30 29 30 29 28 31 42 53 58 56 52 48 51 52 52 51 49 50 52 54 57 61 63 60 57 55 55 57 56 55 54 51 49 56 70 82 91 91 87 78 77 80 85 87 87 87 86 85 84 84 82 78 75 77 84 90 91
8 11 13 12 15 24 35 41 41 38 35 32 28 27 25 23 23 29 40 49 53 53 52 51 53 55 54 52 52 53 54 55 56 58 59 56 53 51 51 53 53 52 50 45 42 45 52 62 73 79 79 73 69 71 76 81 84 86 86 85 83 84 85 86 87 89 90 90 92
13 16 19 18 23 32 41 45 44 41 37 33 28 26 24 23 24 30 39 46 47 48 50 52 54 55 55 53 55 56 57 59 59 60 60 58 55 53 53 53 52 52 52 50 48 48 50 53 59 65 70 71 68 66 67 70 75 80 84 87 89 91 94 97 98 96 94 92 93
17 20 22 25 31 40 46 49 48 44 40 36 29 27 26 28 28 33 40 44 43 45 49 52 55 56 56 55 56 58 60 60 61 61 61 59 58 57 57 57 56 56 57 58 58 58 58 59 60 63 67 70 69 67 65 65 69 73 78 84 90 94 95 96 95 96 97 99 98
21 22 25 31 38 44 49 52 53 50 44 40 33 32 33 33 31 36 42 44 42 44 47 51 55 57 58 57 57 59 60 60 60 60 61 60 59 59 59 60 60 61 63 65 66 66 66 65 65 67 69 72 71 71 70 70 70 71 74 79 84 88 90 91 91 94 97 99 98
23 24 28 34 40 45 49 51 54 53 50 45 40 40 41 39 37 41 45 47 48 48 49 51 55 59 61 60 59 60 61 61 61 61 62 63 63 63 63 64 64 65 67 69 69 69 68 67 68 69 71 73 75 76 76 76 75 74 73 74 76 78 79 79 79 84 87 89 90
25 28 30 33 38 42 47 51 54 54 52 49 48 48 49 50 49 49 50 52 54 56 57 58 59 62 64 65 63 63 65 66 66 66 67 68 68 68 68 68 68 68 68 69 69 68 68 67 68 70 72 73 74 76 77 77 76 74 71 68 65 63 61 60 60 65 73 77 80
33 35 35 32 33 37 43 50 54 56 55 54 54 54 55 58 58 57 56 56 58 61 63 65 63 63 65 68 68 68 69 71 71 71 71 71 71 72 72 71 71 70 70 70 69 68 66 66 67 69 71 72 72 72 72 73 73 70 67 64 61 58 55 53 52 54 59 65 68
49 51 49 40 33 33 38 46 54 57 58 58 59 60 61 63 64 64 63 61 62 64 66 68 67 66 66 69 71 72 72 73 73 73 72 71 70 70 70 72 72 71 71 71 70 68 66 65 64 66 68 70 69 69 69 69 69 67 66 64 61 58 57 55 53 53 54 55 56
59 62 62 55 48 44 43 48 56 61 62 61 62 64 66 68 68 69 69 68 67 68 69 69 70 69 69 71 73 74 74 73 73 73 73 72 69 67 66 68 70 70 70 69 69 68 67 65 64 65 66 68 68 69 70 70 69 68 66 64 61 59 57 56 54 53 52 51 50
61 65 67 64 59 56 57 60 64 66 66 65 65 67 69 71 72 73 73 73 71 70 70 70 70 70 71 73 76 77 77 75 74 74 75 75 71 68 65 65 69 70 69 67 67 67 67 67 67 67 69 70 71 72 73 74 73 71 69 66 63 60 56 54 52 49 47 45 44
65 68 68 68 66 68 71 75 76 75 73 71 70 70 71 73 75 76 76 77 76 76 75 73 72 72 73 75 78 80 80 80 79 78 77 78 79 76 74 73 76 77 76 73 71 70 71 72 72 72 73 75 75 74 74 74 74 72 71 68 64 61 56 53 49 47 43 39 36
69 75 74 67 62 64 69 73 77 78 78 78 76 75 75 76 78 79 79 79 80 81 80 79 77 76 76 77 79 82 85 88 88 88 87 86 89 91 92 92 93 94 94 91 88 86 85 83 81 79 79 79 77 75 73 70 69 70 69 68 66 62 57 52 49 47 43 38 33
75 78 77 73 68 68 70 73 77 79 81 81 81 80 78 78 78 79 80 80 81 82 83 84 83 82 80 79 79 81 84 89 92 96 98 99 103 107 108 107 105 104 101 97 94 94 94 94 91 87 83 81 78 75 72 68 66 66 67 68 67 65 60 54 49 45 42 39 32
78 80 80 77 75 74 74 75 79 81 82 82 81 79 77 75 76 78 79 79 79 80 82 83 83 82 80 77 75 74 74 74 76 79 83 88 90 91 91 91 91 91 90 91 91 93 93 94 92 88 82 78 77 77 74 70 67 66 66 66 67 66 63 57 49 43 40 37 31
81 82 82 79 75 74 74 76 79 81 81 81 79 77 75 72 72 73 74 74 74 73 73 74 75 75 74 71 68 66 64 60 57 58 62 68 72 75 77 79 81 84 87 88 88 89 89 89 89 87 83 77 77 77 78 75 69 66 64 63 62 62 60 58 50 42 36 31 27
81 86 85 83 79 78 76 76 78 79 79 78 77 76 74 72 70 70 70 70 69 68 67 67 67 68 68 67 64 62 60 57 57 60 65 69 72 74 75 76 78 83 85 86 85 84 85 85 87 87 87 83 77 74 75 75 71 66 63 60 58 56 55 53 46 39 32 24 22
77 83 86 87 86 83 79 78 79 79 79 79 78 77 76 74 72 71 70 68 67 66 66 66 66 66 66 65 63 60 58 56 59 63 67 69 70 70 71 72 76 81 83 83 81 81 81 82 85 89 91 90 81 73 72 74 73 70 67 62 58 56 54 50 44 37 30 24 22
68 76 82 87 88 86 85 85 87 87 85 83 82 81 79 76 73 72 71 70 68 68 68 69 69 68 66 64 63 61 59 58 61 64 68 70 70 69 68 68 71 77 79 79 78 78 79 81 86 91 94 93 85 79 77 81 80 77 73 68 62 59 57 53 46 39 34 29 27
66 73 79 84 86 86 88 90 93 94 93 91 87 85 82 78 76 74 74 74 74 73 72 72 72 71 69 66 65 65 64 64 64 66 68 71 72 71 69 66 68 73 77 78 79 81 83 86 91 94 96 95 88 81 77 80 79 77 73 68 61 57 55 52 46 41 36 33 34
74 79 83 86 87 89 92 94 96 97 96 95 91 88 85 82 79 77 76 77 76 75 74 73 75 75 75 73 71 70 71 72 73 73 75 76 75 73 69 65 66 72 77 80 83 86 90 93 96 98 98 96 88 79 71 72 71 69 65 59 52 47 44 42 40 35 32 31 36
85 90 93 95 97 97 98 100 100 100 98 97 94 92 89 87 83 79 76 75 74 74 74 76 77 79 79 79 78 77 76 76 76 78 78 77 75 72 68 64 67 75 81 85 89 92 95 98 100 100 97 92 84 73 64 66 64 61 56 49 41 37 34 34 30 26 22 19 26
97 101 103 104 105 105 106 105 104 102 100 98 96 94 92 90 87 83 80 77 75 74 73 73 74 75 75 75 78 79 79 78 73 71 69 68 66 65 64 61 66 78 85 89 92 95 98 100 100 98 94 86 77 67 61 63 59 55 50 43 33 27 24 22 18 11 2 356 359
106 111 112 111 111 111 111 110 108 105 103 101 98 95 92 90 90 91 91 90 86 81 75 71 70 69 67 65 69 74 77 75 70 65 61 59 60 61 59 53 60 80 90 93 95 97 99 100 99 95 90 80 70 63 61 63 59 52 44 37 25 15 7 2 358 348 336 326 326
109 116 119 117 116 115 114 113 110 107 105 103 101 97 93 90 91 95 98 99 94 89 84 80 76 71 68 65 65 66 68 70 68 63 59 57 58 58 54 40 41 77 94 98 99 100 101 101 100 96 89 77 67 62 62 62 57 47 37 30 16 2 353 348 342 334 325 315 303
105 116 120 119 117 115 114 113 111 109 106 104 103 101 98 95 93 95 99 103 100 98 97 93 89 85 80 76 71 62 54 55 62 62 58 54 58 61 57 34 20 59 88 99 101 103 104 106 105 101 93 79 71 66 63 61 53 42 33 22 1 344 335 334 332 328 321 312 292
103 111 116 116 113 111 111 111 111 110 108 106 104 104 103 101 96 94 96 101 106 111 113 110 105 98 90 85 79 63 48 41 51 57 57 49 50 60 66 50 12 13 53 100 105 108 110 112 112 109 103 92 86 81 76 67 54 41 28 12 348 333 326 325 328 327 322 316 310
108 111 114 114 113 112 111 112 114 114 114 111 108 106 104 101 98 93 90 90 102 113 120 120 111 96 80 73 72 61 48 38 43 50 53 42 28 43 63 65 4 334 337 105 113 114 116 117 118 115 109 103 103 100 93 84 68 49 29 9 351 337 329 327 331 330 326 322 331
116 116 117 118 118 117 117 117 119 119 119 118 116 113 110 107 103 95 87 80 85 95 105 111 96 70 54 58 63 60 51 37 39 43 45 31 15 29 48 64 355 320 312 231 123 123 124 123 123 120 114 107 109 108 103 96 79 58 33 11 360 346 337 330 332 333 331 327 335
122 121 122 123 123 123 123 124 124 123 121 121 121 121 117 111 102 92 84 79 77 79 87 96 75 53 43 48 55 58 54 39 28 26 27 19 16 28 40 48 355 326 320 325 116 124 128 128 128 126 123 117 114 110 103 95 84 68 43 8 359 352 344 335 334 335 334 330 330